Preview of NWS' New Version of Forecast
This preview is not operational and should not be used for support decisions.

Regional Weather Roundup (RWR)

Issued by National Weather Service (NWS)

                            
000
ASUS44 KMEG 210110
RWRTN 
TENNESSEE HOURLY STATE WEATHER ROUNDUP
NATIONAL WEATHER SERVICE MEMPHIS TN
700 PM CST WED FEB 20 2019

TNZ002-004-019-021-049-052-054-088>092-210200-
WEST TENNESSEE
  
CITY           SKY/WX    TMP DP  RH WIND       PRES   REMARKS
MEMPHIS INTL   FAIR      46  41  82 S3        30.00R                  
NWS MEMPHIS      N/A     45 N/A N/A MISG        N/A                   
JACKSON        CLOUDY    47  43  86 W7        30.00R                  
DYERSBURG      FAIR      44  41  89 S3        30.00R                  
SOMERVILLE     CLOUDY    46  43  87 VRB3      29.98R                  
COVINGTON      CLOUDY    45  41  87 SW5       30.00R                  
UNION CITY     CLEAR     43  41  93 S3        29.97R                  
PARIS          CLOUDY    45  43  93 W5        29.98R                  
HUNTINGDON     CLOUDY    46  45  93 W7G15     29.98R                  
SELMER         CLOUDY    46  45  93 VRB5      29.97R                  
$$

TNZ008-025-027-028-033-062-065-066-210200-
NORTH MIDDLE TENNESSEE
  
CITY           SKY/WX    TMP DP  RH WIND       PRES   REMARKS
NASHVILLE      LGT RAIN  55  53  93 SW7       29.95R FOG              
DICKSON        CLOUDY    48  46  93 W9        29.94R                  
CLARKSVILLE    CLOUDY    48  45  89 W8        29.96R                  
LEBANON        CLOUDY    54  52  94 SW8       29.93R                  
SMYRNA         CLOUDY    54  53  97 CALM      29.96R                  
MURFREESBORO   CLOUDY    55  54  94 SW7       29.93R                  
COOKEVILLE     CLOUDY    54  52  94 CALM      29.94R FOG              
GALLATIN       CLOUDY    54  54 100 VRB3      29.97R                  
CROSSVILLE     CLOUDY    51  49  92 S8        29.96R                  
ROCKWOOD       FOG       48  48 100 SW15      29.96R VSB 1/2          
$$

TNZ061-075-076-078-094-096-097-210200-
SOUTH MIDDLE TENNESSEE
  
CITY           SKY/WX    TMP DP  RH WIND       PRES   REMARKS
LAWRENCEBURG   FOG       55  54  94 CALM      29.94R VSB 1            
LEWISBURG      CLOUDY    55  54  94 S5        29.94R                  
FAYETTEVILLE   CLOUDY    54  54 100 S5        29.95R                  
TULLAHOMA      CLOUDY    54  52  94 S5        29.94R                  
WINCHESTER     CLOUDY    55  52  88 SE6       29.95R                  
MCMINNVILLE    CLOUDY    57  54  88 SW8       29.95R                  
COLUMBIA       CLOUDY    54  54 100 NW6G15    29.94R FOG              
SHELBYVILLE    CLOUDY    54  54 100 SW6       29.95R                  
$$

TNZ017-018-042-046-047-210200-
NORTHEAST TENNESSEE
  
CITY           SKY/WX    TMP DP  RH WIND       PRES   REMARKS
TRI CITIES     CLOUDY    48  48 100 E5        29.99R                  
ELIZABETHTON   CLOUDY    54  54 100 CALM      29.99R                  
GREENEVILLE    CLOUDY    52  50  93 SW3       29.96S                  
$$

TNZ012-013-036-069-073-074-210200-
CENTRAL EAST TENNESSEE
  
CITY           SKY/WX    TMP DP  RH WIND       PRES   REMARKS
KNOXVILLE      LGT RAIN  48  47  96 SW3       29.97R FOG              
OAK RIDGE      CLOUDY    48  48 100 CALM      29.99S                  
DOWNTOWN KNOXV CLOUDY    50  50 100 CALM      29.98R FOG              
GATLINBURG     CLOUDY    50  50 100 NE3       29.97F                  
MORRISTOWN     MOCLDY    50  50 100 CALM      29.96S FOG              
JACKSBORO      CLOUDY    50  48  93 NE6       29.98S                  
$$

TNZ083-085-099-210200-
SOUTHEAST TENNESSEE
  
CITY           SKY/WX    TMP DP  RH WIND       PRES   REMARKS
CHATTANOOGA    CLOUDY    47  45  93 S6        30.02R                  
DAYTON         CLOUDY    48  46  93 SW7       29.99S                  
$$

SKY/WX REPORTED AS FAIR MEANS FEW OR NO CLOUDS BELOW
12 THOUSAND FEET.